Total_Precipitation_Accumulation
1.94 1.86 1.76 1.71 1.58 1.75 2.09 2.28 2.17 2.18 2.12 2.00 1.81 1.64 1.54 1.50 1.44 1.53 1.67 1.88 1.87 1.86 2.00 2.13 1.99 1.81 1.70 1.55 1.38 1.21 1.12 1.05 0.95 0.75 0.65 0.56 0.47 0.48 0.51 0.57 0.55 0.48 0.46
2.34 2.41 2.30 2.13 1.83 1.77 1.88 2.19 2.30 2.44 2.34 2.22 1.66 1.57 1.56 1.59 1.64 1.63 1.72 2.21 2.24 1.88 1.79 1.93 2.07 2.09 1.95 1.81 1.62 1.41 1.28 1.18 0.98 0.76 0.68 0.61 0.50 0.45 0.52 0.61 0.63 0.49 0.37
2.47 2.48 2.26 1.92 1.72 1.78 1.88 1.83 1.89 2.21 2.00 1.85 1.68 1.78 1.78 1.68 1.64 1.64 1.69 2.05 2.09 1.76 1.55 1.56 1.77 1.94 2.05 2.16 2.07 1.92 1.66 1.40 1.15 0.90 0.74 0.61 0.52 0.44 0.43 0.55 0.63 0.54 0.39
2.12 2.16 1.81 1.44 1.51 1.72 1.79 1.79 1.77 1.88 1.87 1.91 1.92 1.88 1.82 1.68 1.43 1.35 1.28 1.30 1.46 1.27 1.36 1.55 1.55 1.56 1.83 2.19 2.37 2.54 2.28 1.78 1.39 1.07 0.86 0.68 0.55 0.43 0.37 0.43 0.53 0.50 0.40
1.59 1.68 1.42 1.31 1.38 1.52 1.59 1.55 1.73 1.85 1.74 1.82 1.80 1.72 1.41 1.24 1.11 0.99 0.96 0.89 0.97 1.05 1.07 1.21 1.29 1.34 1.70 2.20 2.60 2.95 2.93 2.45 1.92 1.53 1.24 0.94 0.77 0.55 0.44 0.38 0.41 0.43 0.37
1.30 1.46 1.34 1.23 1.32 1.42 1.44 1.59 1.72 1.79 1.57 1.54 1.43 1.20 1.00 0.77 0.72 0.67 0.58 0.65 0.71 0.72 0.82 0.96 1.21 1.09 1.49 1.92 2.34 2.76 3.12 2.96 2.34 1.92 1.75 1.50 1.25 0.90 0.59 0.42 0.37 0.36 0.32
1.28 1.41 1.26 1.17 1.15 1.20 1.22 1.34 1.43 1.45 1.22 1.40 1.57 1.12 0.79 0.61 0.53 0.42 0.42 0.47 0.51 0.59 0.76 1.00 1.19 1.20 1.33 1.48 1.69 2.07 2.70 3.00 2.70 2.25 2.04 1.83 1.65 1.27 0.83 0.59 0.44 0.34 0.30
1.11 1.14 1.10 0.97 0.96 1.02 1.01 1.08 1.21 1.20 1.06 1.30 1.47 1.37 1.03 0.81 0.63 0.42 0.42 0.43 0.49 0.62 0.70 0.79 1.09 1.27 1.27 1.67 1.44 1.47 1.96 2.50 2.74 2.59 2.35 1.94 1.67 1.40 1.06 0.85 0.64 0.46 0.35
0.82 0.79 0.79 0.80 0.85 0.83 0.87 0.95 1.10 1.22 1.09 1.07 1.27 1.42 1.18 0.89 0.77 0.59 0.55 0.59 0.67 0.77 0.82 0.96 1.07 1.19 1.27 1.60 1.63 1.54 1.54 1.73 2.30 2.82 2.82 2.28 1.70 1.36 1.26 1.22 1.09 0.79 0.60
0.67 0.62 0.61 0.70 0.77 0.80 0.87 0.80 0.85 1.02 1.10 0.98 1.03 1.10 1.13 1.15 1.11 0.85 0.63 0.58 0.66 0.73 0.75 0.79 0.89 1.05 1.14 1.38 1.70 1.63 1.48 1.39 1.61 2.28 2.75 2.68 2.15 1.53 1.27 1.33 1.64 1.50 1.09
0.67 0.59 0.55 0.56 0.65 0.74 0.81 0.82 0.84 0.87 0.92 0.89 0.88 0.90 0.96 1.07 1.07 1.02 0.79 0.62 0.61 0.58 0.64 0.71 0.81 0.88 0.97 1.21 1.60 1.57 1.54 1.36 1.30 1.51 1.92 2.19 2.14 1.83 1.56 1.59 2.10 2.44 2.19
0.63 0.58 0.56 0.57 0.57 0.58 0.63 0.71 0.75 0.78 0.82 0.84 0.82 0.86 0.94 0.92 0.93 1.04 0.93 0.78 0.72 0.63 0.69 0.75 0.87 0.96 0.98 1.07 1.05 1.12 1.14 1.17 1.15 1.11 1.18 1.36 1.62 1.77 1.81 2.00 2.44 2.88 3.07
0.51 0.52 0.52 0.60 0.65 0.65 0.64 0.66 0.70 0.75 0.81 0.86 0.84 0.85 0.91 0.94 0.95 1.03 1.00 0.84 0.79 0.80 0.90 0.91 0.89 0.98 0.94 1.11 1.04 0.87 0.75 0.77 0.76 0.75 0.76 0.86 1.06 1.30 1.47 1.61 1.92 2.33 2.68
0.48 0.57 0.61 0.62 0.65 0.69 0.70 0.77 0.78 0.82 0.87 0.88 0.84 0.95 0.99 0.94 1.02 1.08 1.15 1.17 1.05 1.02 1.15 1.02 0.84 0.82 0.85 0.89 0.84 0.77 0.77 0.61 0.52 0.48 0.49 0.54 0.63 0.75 0.89 1.05 1.24 1.45 1.68
0.47 0.51 0.57 0.66 0.67 0.67 0.71 0.80 0.82 0.87 0.94 0.96 0.98 1.08 1.12 1.09 1.09 1.07 1.20 1.31 1.34 1.28 1.30 1.18 1.00 0.88 0.80 0.74 0.73 0.71 0.77 0.72 0.52 0.38 0.35 0.37 0.44 0.52 0.56 0.59 0.70 0.81 0.94
0.55 0.54 0.53 0.59 0.61 0.62 0.69 0.83 0.86 0.93 1.06 1.10 1.08 1.10 1.17 1.19 1.23 1.21 1.23 1.30 1.42 1.49 1.43 1.14 1.06 0.98 0.85 0.65 0.62 0.60 0.62 0.66 0.51 0.37 0.29 0.28 0.30 0.35 0.41 0.46 0.51 0.55 0.62
0.59 0.53 0.48 0.49 0.50 0.52 0.58 0.72 0.87 0.99 1.10 1.13 1.13 1.16 1.20 1.28 1.29 1.20 1.25 1.30 1.39 1.52 1.38 1.09 1.13 1.24 1.11 0.86 0.69 0.61 0.52 0.52 0.50 0.44 0.29 0.25 0.25 0.26 0.31 0.35 0.38 0.42 0.47
0.61 0.57 0.54 0.51 0.43 0.42 0.52 0.65 0.80 0.96 1.10 1.20 1.23 1.25 1.15 1.14 1.24 1.26 1.27 1.29 1.31 1.44 1.37 1.25 1.20 1.28 1.27 1.11 0.92 0.71 0.52 0.44 0.45 0.49 0.36 0.27 0.25 0.26 0.28 0.30 0.30 0.32 0.36
0.77 0.72 0.65 0.58 0.56 0.59 0.65 0.72 0.78 0.90 1.04 1.13 1.18 1.16 1.11 1.15 1.11 1.20 1.26 1.24 1.23 1.21 1.28 1.28 1.26 1.38 1.39 1.23 1.02 0.81 0.61 0.56 0.50 0.47 0.41 0.36 0.32 0.31 0.33 0.30 0.27 0.28 0.33
0.77 0.77 0.74 0.76 0.80 0.84 0.82 0.79 0.78 0.83 0.87 0.92 0.96 0.95 0.93 0.97 1.02 1.09 1.11 1.12 1.16 1.20 1.24 1.23 1.27 1.40 1.43 1.41 1.22 0.97 0.77 0.65 0.58 0.49 0.46 0.48 0.49 0.46 0.42 0.37 0.30 0.27 0.30
0.73 0.84 0.88 0.92 0.96 0.94 0.86 0.88 0.88 0.79 0.83 0.78 0.74 0.75 0.76 0.83 0.88 0.94 0.90 0.96 1.05 1.11 1.15 1.23 1.29 1.43 1.45 1.50 1.35 1.10 0.93 0.80 0.67 0.60 0.58 0.56 0.55 0.49 0.44 0.43 0.39 0.31 0.27
0.83 0.94 0.97 1.00 1.00 0.89 0.88 0.86 0.83 0.78 0.81 0.80 0.76 0.73 0.69 0.71 0.71 0.74 0.76 0.81 0.91 1.00 1.08 1.19 1.27 1.38 1.47 1.46 1.40 1.28 1.13 0.94 0.73 0.68 0.81 0.77 0.64 0.60 0.71 0.67 0.51 0.33 0.25
0.98 1.02 1.10 1.13 1.14 1.14 1.00 0.86 0.80 0.77 0.83 0.86 0.89 0.86 0.65 0.54 0.62 0.67 0.76 0.74 0.74 0.79 0.91 1.05 1.13 1.24 1.43 1.50 1.54 1.41 1.34 1.18 0.91 0.73 0.73 0.63 0.59 0.63 0.86 0.98 0.71 0.41 0.32
1.20 1.27 1.30 1.24 1.24 1.20 1.06 0.85 0.78 0.69 0.72 0.79 0.84 0.86 0.82 0.75 0.72 0.74 0.81 0.80 0.74 0.69 0.74 0.81 0.87 1.07 1.41 1.66 1.70 1.64 1.61 1.48 1.22 0.93 0.83 0.71 0.61 0.61 0.57 0.63 0.68 0.50 0.37
1.48 1.56 1.61 1.55 1.45 1.38 1.15 0.85 0.74 0.67 0.72 0.75 0.79 0.81 0.81 0.75 0.66 0.56 0.62 0.69 0.73 0.72 0.68 0.76 0.82 0.95 1.18 1.51 1.70 1.73 1.74 1.57 1.31 1.01 0.84 0.79 0.62 0.61 0.57 0.51 0.57 0.63 0.51
1.69 1.72 1.63 1.51 1.44 1.42 1.28 0.97 0.83 0.78 0.85 0.88 0.97 0.95 0.84 0.76 0.66 0.54 0.59 0.70 0.72 0.73 0.79 0.80 0.79 0.79 0.90 1.17 1.45 1.47 1.49 1.54 1.31 1.07 0.80 0.75 0.68 0.63 0.59 0.49 0.46 0.51 0.57